Join Our Mailing List

Items Per Page

Sort By

Date Address Town County Zip Sale Price
07/21/2016 6110 Greenspring Ave. Baltimore Baltimore City 21209 $101,000
07/21/2016 2822 Presstman St. Baltimore Baltimore City 21216 $11,000
07/21/2016 1839 Kalorama Rd., NW #1 Washington District of Columbia 20009 $354,000
07/21/2016 3220 M. L. King Jr., Ave., SE Washington District of Columbia 20032 $165,000
07/21/2016 436 Drew St. Baltimore Baltimore City 21224 $56,000
07/20/2016 6616 23rd Ave. Hyattsville Prince George's County 20782 $139,000
07/19/2016 7212 Tamo Ct., Unit #7 Landover a/r/t/a Hyattsville Prince George's County 20785 $76,000
07/19/2016 3511 Madison St. Hyattsville Prince George's County 20782 $126,000
07/19/2016 4309 Lyons St. Temple Hills Prince George's County 20748 $96,000
07/15/2016 7713 Greenwood Ave. Takoma Park Montgomery County 20912 $520,000
07/15/2016 8819 Meadow Heights Rd. Randallstown Baltimore County 21133 $131,000
07/15/2016 1658 Shadyside Rd. Baltimore Baltimore City 21218 $65,000
07/14/2016 3409 Mayfair Rd. Baltimore a/r/t/a Gwynn Oak Baltimore County 21207 $111,000
07/14/2016 5435 Lynview Ave. Baltimore Baltimore City 21215 $42,000
07/14/2016 4316 Roberton Ave. Baltimore Baltimore City 21206 $41,000
07/12/2016 4808 River Valley Way, Unit #148 Bowie Prince George's County 20720 $100,000
07/12/2016 3712 Cooper La. Hyattsville Prince George's County 20784 $163,000
07/12/2016 11202 Dewey Rd. Kensington Montgomery County 20895 $331,000
07/08/2016 12012 Amber Ridge Cir., Unit #B-102 Germantown Montgomery County 20876 $132,000
07/08/2016 12209 Saint Peter Ct., Unit E Germantown Montgomery County 20874 $111,000
07/08/2016 3404 Marmon Ave. Baltimore Baltimore City 21207 $38,500
07/07/2016 692 Wise Ave. Baltimore Baltimore County 21222 $255,000
07/07/2016 1877 Loch Shiel Rd. Baltimore a/r/t/a Parkville Baltimore County 21234 $133,000
07/07/2016 810 George St. Baltimore Baltimore City 21201 $71,500
07/07/2016 7240 Park Heights Ave., Unit #207 Baltimore Baltimore City 21208 $70,000
07/07/2016 1232 Silverthorne Rd. Baltimore Baltimore City 21239 $56,000
07/07/2016 4708 Wrenwood Ave. Baltimore Baltimore City 21212 $32,000
07/07/2016 3026 Pineview Ct., NE #3026 Washington District of Columbia 20018 $90,000
07/07/2016 1122 46th Pl., SE Washington District of Columbia 20019 $154,000
07/07/2016 4907 Sheriff Rd., NE Washington District of Columbia 20019 $122,000
07/07/2016 5461 Central Ave., SE Washington District of Columbia 20019 $173,000
07/07/2016 4204 3rd St., NW Washington District of Columbia 20011 $439,000
07/07/2016 623 Alabama Ave., SE Washington District of Columbia 20032 $130,000
07/06/2016 15612 Everglade La., Unit #306 Bowie Prince George's County 20716 $112,000
07/06/2016 518 Harding Dr. Silver Spring Montgomery County 20901 $309,000
07/06/2016 1836 Metzerott Rd., Unit #815 Hyattsville Prince George's County 20783 $16,500
07/01/2016 19927 Sugar Notch Cir. Gaithersburg a/r/t/a Montgomery Village Montgomery County 20886 $176,000
07/01/2016 2431 Rippling Brook Rd. Frederick Frederick County 21701 $213,000
07/01/2016 500 Baltic Ave. Baltimore Baltimore City 21225 $20,000
07/01/2016 4000 N. Charles St., Unit #704 Baltimore Baltimore City 21218 $80,000
06/30/2016 600 North Bend Rd. Baltimore Baltimore County 21229 $113,000
06/30/2016 2826 Bookert Dr. Baltimore Baltimore City 21225 $24,000
06/30/2016 2121 Whistler Ave. Baltimore Baltimore City 21230 $26,000
06/29/2016 718 Bunch Ave. Glen Burnie Anne Arundel County 21060 $153,000
06/29/2016 603 Chester River Beach Rd. Grasonville Queen Anne's County 21638 $115,000
06/28/2016 2724 Red Oak La. Lanham a/r/t/a Glenarden Prince George's County 20706 $116,000
06/28/2016 7829 Emilys Way Greenbelt Prince George's County 20770 $183,000
06/28/2016 9404 Fairhaven Ave. Upper Marlboro Prince George's County 20772 $184,000
06/28/2016 8302 Condy Ct. Clinton Prince George's County 20735 $382,000
06/28/2016 12712 Veirs Mill Rd., Unit #103 Rockville Montgomery County 20853 $133,000

Items Per Page

Sort By